Location: La Sioule Rivi�re
(46.3664°N, 3.3197°E)
Time: 12:45:43
(UTC+00:00)

Cosmos 2278 - Pass Details

Date: 29 October 2020
Orbit: 842 x 851 km, 71.1° (Epoch: 23 November)

Event Time Altitude Azimuth Distance (km) Brightness Sun altitude
Rises 18:02:32 0° 178° (S) 3,397 6.9 -15.4°
Reaches altitude 10° 18:05:09 10° 170° (S) 2,465 6.1 -15.9°
Maximum altitude 18:10:15 36° 106° (ESE) 1,325 4.2 -16.8°
Enters shadow 18:12:46 24° 60° (ENE) 1,680 4.7 -17.2°
